Theta_e
344 348 355 357 360 361 366 365 357 359 358 354 352 349 354 355 357 359 350 350 350 352 353 352 347 350 341 346 349 348 347 347 346 340 347 348 350 351 343 348 351 349 346 345 344 344 347 345 342
344 355 355 353 362 367 362 357 360 356 354 354 353 351 352 358 353 352 350 351 351 352 352 351 350 345 344 339 342 347 349 349 347 346 346 346 348 344 344 350 350 351 349 348 347 344 344 344 341
349 352 359 360 361 365 362 355 354 352 352 354 354 350 352 356 351 351 352 351 352 352 353 352 349 341 345 342 343 343 344 347 343 343 343 346 342 341 344 351 350 346 345 343 348 343 345 345 341
350 352 352 361 361 356 355 353 353 354 354 352 353 354 352 350 351 351 352 351 352 351 353 351 347 345 343 343 344 343 346 347 345 343 342 342 343 344 346 348 344 343 343 343 343 342 345 342 343
352 350 359 361 361 354 353 354 355 358 356 355 351 355 354 350 351 352 352 351 351 350 352 353 347 344 344 344 344 344 343 343 343 343 347 348 347 349 349 345 343 343 344 343 343 342 343 345 346
350 348 355 360 359 356 355 353 357 358 356 355 354 354 354 352 352 352 352 351 350 351 353 353 349 346 346 345 346 345 346 348 347 345 353 351 352 351 349 350 348 349 345 348 349 349 347 346 345
351 353 356 355 354 356 357 353 356 356 356 355 351 357 354 353 352 352 352 351 351 353 353 354 353 354 352 349 348 351 348 351 345 351 353 346 349 351 348 346 349 346 342 344 343 344 346 343 344
350 352 354 354 355 355 356 355 355 355 354 350 350 357 358 352 352 351 351 351 352 353 354 356 355 355 355 355 353 353 351 352 347 351 349 351 347 349 347 349 348 339 343 342 340 341 345 343 342
344 349 353 349 354 353 357 358 352 347 351 352 351 351 350 351 350 351 351 353 355 355 355 354 354 356 355 355 354 351 351 351 351 348 351 350 349 348 349 348 342 333 334 340 346 344 344 343 341
343 348 344 346 349 353 358 357 353 352 351 353 353 350 350 350 350 350 350 351 352 352 352 350 351 352 352 349 350 353 351 345 344 347 350 351 350 349 349 343 341 335 334 335 336 338 345 344 347
339 341 343 344 349 351 355 357 351 353 355 352 354 354 351 350 349 349 349 349 349 348 348 350 352 350 347 347 351 351 342 347 346 346 348 349 346 348 347 343 342 341 340 342 345 346 345 347 346
331 336 341 345 351 351 355 353 354 352 352 349 350 352 351 351 349 346 346 348 347 349 350 352 351 350 352 351 349 350 345 343 346 346 343 346 347 348 348 346 345 345 344 343 346 348 346 345 346
330 327 328 332 350 354 353 355 355 354 350 350 350 352 353 351 350 347 347 348 348 349 351 351 351 351 352 350 349 351 349 348 348 345 340 343 347 348 347 347 346 346 344 344 348 349 347 347 347
326 326 327 334 351 353 354 355 354 352 351 350 351 354 353 352 351 351 351 351 350 350 350 351 350 351 351 350 347 351 350 349 349 347 340 343 346 347 346 347 348 346 346 345 345 348 349 348 347
325 329 333 345 352 353 353 357 357 352 351 352 351 352 353 352 351 351 351 351 351 351 351 350 350 350 351 351 350 352 350 348 347 346 340 343 346 345 346 346 346 346 347 346 344 345 347 349 346
330 332 332 330 352 352 354 354 352 352 353 354 352 352 352 352 351 351 350 350 350 351 352 350 348 349 349 350 348 350 349 349 349 349 348 345 345 346 346 346 344 346 344 344 348 346 349 349 350
330 331 330 330 342 347 356 350 351 352 353 354 354 353 352 352 350 349 349 349 350 351 352 351 350 351 350 350 349 348 349 349 350 349 348 346 345 345 347 347 344 345 347 346 349 350 348 349 348
329 328 328 330 330 343 342 346 350 353 353 354 353 353 352 351 351 348 349 349 349 351 352 352 352 352 352 348 349 348 349 349 349 348 348 345 344 344 347 347 344 341 343 344 343 345 346 349 350
326 327 328 329 328 329 332 338 341 354 352 353 353 352 352 352 348 348 348 349 350 350 352 352 352 352 351 349 350 349 349 349 349 348 346 346 345 345 345 346 347 344 342 344 346 349 347 348 350
325 326 328 328 335 336 348 351 348 351 355 353 352 350 351 350 348 347 346 348 349 350 351 352 352 351 350 351 349 350 349 348 349 348 345 343 345 345 345 344 348 347 348 349 349 349 347 350 348
327 326 327 327 327 343 345 343 343 349 354 354 351 349 348 348 348 347 346 346 347 349 351 351 353 351 350 349 348 349 348 347 346 346 346 343 342 343 345 345 348 348 347 352 351 351 351 350 346
328 325 325 325 338 341 343 338 345 344 349 355 353 351 349 347 346 346 346 348 347 349 350 351 353 352 350 348 349 350 348 348 348 348 346 345 342 347 346 347 348 348 350 348 349 351 351 348 349
328 332 337 340 340 339 339 345 339 342 345 345 349 352 349 345 347 347 347 347 348 348 350 351 352 352 352 349 349 350 349 348 348 347 346 342 344 347 347 347 348 346 349 349 347 348 349 352 350
329 332 330 332 336 332 338 342 335 342 343 343 342 343 348 348 346 347 346 346 348 349 349 350 351 349 350 351 350 350 349 348 347 347 343 344 349 348 347 347 347 346 349 346 345 348 348 350 350
327 329 330 329 329 332 335 340 340 341 341 342 343 344 344 349 347 348 348 348 349 350 349 348 349 352 351 351 351 350 349 349 348 347 346 350 350 351 349 348 348 348 347 347 348 347 348 348 348
329 328 329 331 330 330 333 335 336 340 339 340 345 340 343 348 347 346 348 349 350 350 350 350 350 352 352 352 351 350 349 349 347 346 346 347 348 348 348 345 347 345 345 347 347 347 347 349 348
326 328 324 328 329 331 331 335 337 338 342 342 347 348 344 347 346 346 347 349 349 349 349 350 351 351 351 351 352 351 349 349 348 346 346 347 346 347 347 347 348 347 348 347 349 351 347 350 348
325 325 328 328 331 332 331 336 338 343 346 345 348 350 348 346 346 344 345 348 349 347 344 347 347 351 351 351 352 351 351 349 348 346 347 347 346 346 347 348 348 348 349 349 348 351 350 348 349
325 327 325 327 329 330 332 333 338 343 346 345 346 347 347 345 345 345 344 347 348 348 348 348 344 349 350 350 351 351 351 350 349 348 347 348 347 346 346 348 348 348 347 346 345 345 346 345 348
323 325 327 328 335 332 337 337 334 342 345 345 345 345 344 347 344 346 346 348 348 348 348 349 349 349 350 350 350 351 351 350 349 349 349 347 348 347 346 346 348 348 348 347 346 347 352 353 352
Wind_Speed
3 2 2 1 1 3 3 3 1 4 2 2 1 3 2 3 3 2 10 11 24 24 21 20 22 20 20 18 17 16 16 17 18 19 14 13 11 11 11 11 11 10 9 7 7 6 5 4 3
5 2 1 1 3 3 2 1 2 3 1 3 4 5 2 3 3 8 17 16 25 24 22 20 22 20 19 18 17 17 16 15 16 16 14 11 10 10 8 9 9 9 9 8 9 8 6 5 5
4 3 2 3 3 3 3 2 3 3 3 1 3 5 3 2 3 19 9 25 23 22 20 20 21 19 18 18 17 16 16 15 14 13 11 10 9 9 8 7 8 8 7 9 7 8 8 8 6
2 1 2 4 7 3 1 3 3 2 3 5 5 6 5 4 11 7 22 25 24 21 20 21 21 20 19 18 16 16 14 13 12 12 11 10 9 7 7 7 6 6 5 6 6 7 7 8 7
2 1 4 3 3 1 2 1 4 3 4 7 4 4 4 5 5 18 25 23 23 21 19 19 20 19 17 17 16 17 14 12 11 11 9 8 7 6 5 5 3 3 3 3 5 6 6 6 6
2 1 3 4 3 2 2 3 4 3 4 5 5 6 4 5 14 20 23 21 21 21 18 17 18 17 17 16 15 15 13 12 10 8 8 7 6 5 3 2 1 2 2 1 3 4 5 6 5
3 2 2 2 2 3 1 6 2 2 5 2 10 4 4 8 14 19 20 19 19 18 17 16 16 16 15 15 15 14 13 11 10 9 8 8 6 5 3 2 1 1 3 2 2 3 5 5 5
2 1 1 2 1 2 2 5 1 3 2 7 5 5 6 15 19 18 18 18 18 17 17 16 15 15 14 13 12 11 10 11 9 9 7 6 6 6 3 3 3 9 6 3 1 2 3 4 4
2 1 2 1 3 0 4 6 3 2 4 3 3 3 9 25 22 21 20 17 16 16 17 16 16 15 15 13 12 11 11 12 10 8 7 6 7 6 5 5 11 14 9 5 3 2 2 4 4
1 1 3 2 3 2 6 5 7 4 5 5 4 9 23 27 25 23 22 20 20 19 18 18 17 16 14 12 11 11 11 11 12 10 10 7 6 6 6 6 9 13 11 11 11 8 3 4 4
1 2 2 4 6 1 4 7 5 5 6 8 10 15 21 25 23 23 22 22 23 20 19 19 17 15 15 13 12 10 12 13 11 10 9 8 7 6 6 7 8 11 10 8 7 6 7 6 6
3 6 6 5 5 6 5 4 5 10 4 4 10 20 22 21 21 24 23 22 22 21 20 19 18 16 15 13 12 11 12 13 11 11 11 8 7 7 8 7 10 11 11 10 7 6 5 6 7
3 9 7 8 4 4 6 6 5 7 8 3 15 19 21 19 23 23 22 20 19 20 20 19 18 18 16 15 12 11 11 11 10 9 12 9 7 7 7 7 8 11 9 12 8 8 7 6 7
7 11 12 4 3 5 6 3 3 3 8 10 16 19 18 20 24 22 21 20 21 20 21 19 19 18 16 15 15 11 11 10 10 10 11 10 9 8 6 4 5 7 13 13 12 9 7 7 7
7 7 5 5 2 2 4 6 11 4 12 14 14 15 17 17 21 24 24 24 23 21 19 21 20 19 18 15 14 12 10 10 11 10 12 10 9 6 4 2 4 8 7 5 9 9 8 6 7
4 1 6 3 4 3 7 13 6 10 13 15 15 15 16 18 25 23 23 24 22 20 20 19 19 19 19 16 17 15 11 11 11 10 10 10 9 5 2 3 4 5 5 4 7 8 7 5 5
4 4 8 8 3 2 10 13 4 11 14 13 15 16 16 16 18 22 24 24 24 23 21 21 20 19 19 19 18 16 12 12 11 10 10 10 10 8 6 4 5 4 5 3 4 7 6 6 6
5 6 7 10 3 5 10 21 11 10 14 16 15 15 16 16 21 26 25 24 24 24 23 21 20 20 18 17 19 14 11 12 11 11 10 10 11 9 7 5 3 5 6 5 7 6 6 5 4
6 7 10 20 10 6 9 18 17 12 15 15 16 17 18 20 19 20 23 23 22 21 21 23 23 22 19 15 14 13 13 13 13 12 12 11 10 10 9 7 5 4 8 7 6 6 5 5 3
7 9 12 13 4 5 6 17 17 11 18 21 20 18 19 18 16 18 22 23 25 25 25 23 23 22 22 18 18 11 14 13 14 13 13 12 11 11 8 9 7 4 3 4 5 7 5 3 3
7 7 6 8 10 0 9 10 6 3 8 12 16 16 17 19 19 17 19 25 26 26 25 25 24 25 22 20 17 11 10 11 14 14 13 13 12 11 10 10 8 7 7 5 5 5 4 3 3
7 8 10 9 5 6 5 7 4 4 5 11 14 16 18 16 19 18 17 22 26 26 21 20 21 22 22 23 18 17 15 14 14 15 14 12 11 10 11 9 8 9 8 6 5 5 5 3 4
4 1 3 2 3 3 2 4 3 5 5 3 9 18 19 17 16 18 20 24 24 22 22 20 20 20 19 23 21 18 14 11 10 12 13 14 11 11 11 10 9 8 10 9 6 6 7 5 5
2 4 1 1 1 4 1 3 3 5 8 9 10 7 11 18 18 16 18 17 19 18 20 21 19 22 24 22 22 20 17 13 11 12 12 12 10 12 12 12 10 10 11 10 11 9 9 8 8
5 5 5 3 2 3 1 4 6 3 8 5 12 10 4 12 16 14 14 19 20 21 21 22 24 20 22 22 21 21 18 15 13 15 13 11 9 9 13 14 13 12 12 12 12 9 9 9 6
5 5 4 3 2 6 2 5 5 3 8 5 6 3 2 10 13 14 15 18 19 19 18 17 17 17 20 21 22 22 20 15 15 14 14 11 10 9 10 12 13 13 12 12 12 11 9 8 7
5 4 2 3 1 4 2 4 2 2 3 7 7 6 2 9 12 15 17 19 22 24 27 24 20 19 20 22 21 21 21 18 15 15 13 11 12 10 10 9 10 10 11 12 11 11 9 9 9
4 7 3 2 3 4 3 5 7 7 8 8 10 11 9 4 8 13 15 22 24 26 21 23 23 20 17 20 20 20 20 22 19 17 16 15 14 11 9 11 11 11 11 11 10 8 9 10 8
4 4 2 3 2 3 3 4 3 3 5 7 9 11 11 8 5 9 11 20 24 25 17 15 19 17 18 20 19 19 19 20 20 18 18 17 16 15 13 10 11 10 6 6 8 10 10 10 9
3 3 5 3 4 1 3 3 1 3 4 4 8 9 9 8 3 5 11 19 20 19 19 19 18 19 18 18 18 19 18 19 19 19 18 18 17 15 15 12 11 9 9 10 10 9 8 10 11
Wind_Direction
35 354 358 239 81 64 68 63 19 85 87 42 354 184 135 62 343 31 143 149 149 147 153 152 144 144 141 145 149 151 148 152 165 167 169 169 170 176 181 177 171 172 188 181 199 184 179 192 199
12 1 359 105 61 64 57 25 56 67 110 332 142 141 99 87 69 120 140 153 151 149 154 154 151 153 141 148 149 149 151 155 162 174 180 180 178 179 185 191 194 201 208 212 213 208 209 214 226
18 20 11 62 63 77 98 200 192 134 188 284 126 51 60 52 76 146 143 151 150 151 154 158 157 155 151 153 155 158 156 156 161 168 174 180 184 188 202 212 215 213 215 221 219 227 235 227 230
2 91 77 60 62 76 135 182 205 152 177 202 117 81 92 6 151 163 145 151 150 154 155 163 159 160 162 163 162 161 161 162 167 173 181 190 200 203 216 227 231 230 217 219 217 217 219 222 219
28 70 50 79 64 155 207 227 189 161 155 157 164 114 75 74 136 144 148 155 152 156 158 163 166 167 170 167 170 169 169 174 182 188 187 194 200 205 222 234 239 242 219 217 208 207 197 203 204
64 351 43 52 10 306 237 178 195 214 173 130 105 111 104 128 147 152 152 157 158 157 160 166 169 168 175 175 178 175 178 185 187 188 187 191 196 201 218 215 208 236 213 199 219 192 185 189 191
65 48 47 325 310 287 255 158 208 111 135 134 142 104 111 168 160 155 153 157 161 161 161 165 172 177 179 182 183 183 185 185 192 192 193 191 188 190 203 201 204 21 273 225 205 203 192 206 189
80 76 117 254 300 288 180 174 128 171 107 135 165 144 168 183 161 156 155 160 166 166 166 167 172 176 174 178 182 185 188 196 196 196 191 188 195 184 189 170 165 229 210 247 305 225 222 234 218
139 30 307 233 216 137 160 189 113 99 147 181 133 129 135 153 157 154 158 163 170 171 175 178 180 180 177 178 183 190 195 195 184 193 189 191 187 187 185 195 213 227 230 239 261 293 263 248 255
17 333 266 252 199 191 182 201 154 175 186 190 129 107 140 151 161 163 170 174 179 180 186 188 188 188 186 185 181 192 197 188 185 189 191 189 191 191 192 196 244 246 259 260 256 256 237 267 247
115 250 267 279 215 151 179 208 174 177 209 213 197 148 155 160 168 173 181 182 185 185 188 195 194 192 189 186 186 191 195 195 194 194 198 193 193 196 205 206 241 259 261 266 255 259 237 248 250
279 260 262 300 170 160 178 166 190 206 229 253 196 163 161 171 175 182 184 184 188 192 195 197 197 197 196 192 191 194 201 202 195 196 194 194 207 215 234 243 244 253 265 267 262 251 252 253 257
222 328 314 300 200 199 150 197 221 223 217 172 154 163 172 178 182 189 190 190 192 198 201 202 200 202 202 201 196 197 203 204 202 201 201 205 217 242 270 265 236 228 261 256 258 248 247 255 254
314 305 306 335 182 172 197 218 229 197 162 154 163 173 178 184 187 189 194 197 198 202 204 204 206 208 207 206 205 206 207 206 204 209 208 213 229 255 273 249 235 229 234 254 257 250 253 244 244
309 321 352 28 153 168 179 238 233 193 169 170 181 183 185 188 191 198 197 201 203 205 204 204 204 209 211 210 211 213 213 206 204 208 206 217 229 255 236 250 258 245 272 260 245 243 253 239 218
342 354 343 346 170 182 195 269 247 169 181 184 185 188 192 197 197 202 203 206 207 206 205 205 206 208 212 211 213 214 213 204 203 208 211 218 226 235 246 256 288 263 231 288 223 235 248 243 226
10 332 324 319 224 211 209 278 255 172 192 201 195 194 198 200 210 211 210 208 207 209 205 209 208 210 209 213 218 216 210 208 202 209 209 219 226 233 238 268 291 244 222 245 231 233 233 257 259
331 321 302 287 310 260 254 263 245 190 198 209 210 201 207 210 215 214 214 214 212 211 209 206 208 210 212 215 223 218 207 217 207 209 215 222 219 221 232 251 291 231 228 245 249 253 220 231 238
281 280 288 288 299 272 258 264 271 205 203 215 218 209 210 217 221 220 219 218 213 213 207 204 206 211 206 206 203 208 209 214 215 210 219 216 208 218 228 234 256 270 258 251 251 252 239 232 223
255 296 301 288 309 211 320 292 283 219 212 210 214 214 218 224 223 220 216 213 212 209 207 201 204 208 206 210 206 200 204 209 214 212 218 222 215 227 242 227 238 255 229 244 238 235 285 225 214
266 258 291 282 325 26 318 290 353 33 240 228 230 226 225 226 223 221 215 211 211 208 203 201 200 204 203 207 204 200 198 212 217 220 220 229 226 240 232 216 234 241 245 247 246 230 261 249 238
279 215 276 298 311 324 348 318 0 343 266 222 223 224 224 226 225 226 219 205 203 206 204 198 197 199 201 205 201 199 199 205 212 213 219 217 228 221 202 217 235 236 242 250 242 248 246 220 212
286 304 323 331 304 303 5 286 322 345 10 352 237 230 219 215 209 210 210 208 202 189 192 192 190 195 199 204 201 200 206 211 213 212 220 217 222 207 209 224 240 243 245 245 249 256 251 234 237
154 267 196 134 302 271 76 322 302 9 321 310 316 291 227 213 217 209 207 197 197 190 192 186 186 199 203 207 205 205 204 208 209 207 215 216 204 201 219 228 237 246 248 246 259 259 250 247 240
202 240 284 282 253 304 163 262 279 283 352 296 311 308 231 202 200 191 184 189 186 192 191 191 195 190 201 206 204 209 210 208 211 207 202 200 197 209 225 232 241 246 250 247 258 259 263 264 261
203 260 243 260 289 327 170 318 349 200 356 347 336 344 159 190 203 192 190 184 180 186 191 194 199 193 196 203 208 208 212 210 215 215 208 208 216 229 239 243 244 254 250 249 259 258 259 270 265
139 204 355 181 158 268 353 293 265 267 358 351 2 9 293 185 188 191 185 176 174 192 196 195 201 201 197 202 206 204 208 209 212 216 218 225 232 242 244 242 249 252 255 253 257 256 258 262 262
245 130 176 195 247 286 315 293 300 346 338 347 355 357 343 298 188 181 187 185 190 197 202 193 199 199 202 202 203 205 203 209 213 217 216 222 231 236 242 241 247 247 271 253 253 254 267 268 256
148 201 83 109 297 250 294 314 203 296 306 319 339 347 346 351 197 189 186 184 198 198 201 195 200 199 200 206 202 203 204 207 209 211 216 222 228 235 239 245 254 248 247 243 251 258 266 266 267
261 220 199 231 182 22 322 273 208 270 305 300 316 341 358 7 299 183 180 181 195 201 201 200 204 204 201 205 205 206 204 206 209 212 215 218 224 228 235 240 246 254 255 256 252 254 260 267 271